Location: Chircca
(13.7944°S, 72.0608°W)
Time: 05:30:19
(UTC+00:00)

Envisat - Pass Details

Date: 14 July 2020
Orbit: 764 x 766 km, 98.1° (Epoch: 07 August)

Event Time Altitude Azimuth Distance (km) Brightness Sun altitude
Rises 10:36:42 0° 9° (N) 3,209 6.6 -9.0°
Reaches altitude 10° 10:38:59 10° 7° (N) 2,289 5.9 -8.5°
Maximum altitude 10:44:01 76° 282° (WNW) 792 3.0 -7.3°
Drops below altitude 10° 10:49:07 10° 196° (SSW) 2,310 5.1 -6.2°
Sets 10:51:26 0° 194° (SSW) 3,242 5.9 -5.7°
